Date_Time,Julian_Date,Latitude,Longitude,Instrument_Depth,U,V,Speed,Direction
(yyyy-mm-dd hh:mn:ss UTC),(JD),(+ deg. North),(+ deg. East),(m),(cm/s),(cm/s),(cm/s),(deg True)
1982-06-14 18:00:00 UTC,2445135.250000,28.7317,-95.2428,0215,-2.00,0.07,2.0000,272.0000
1982-06-14 18:30:00 UTC,2445135.270833,28.7317,-95.2428,0215,-1.98,0.28,2.0000,278.0000
1982-06-14 19:00:00 UTC,2445135.291667,28.7317,-95.2428,0215,-1.99,0.21,2.0000,276.0000
1982-06-14 19:30:00 UTC,2445135.312500,28.7317,-95.2428,0215,-1.85,-0.75,2.0000,248.0000
1982-06-14 20:00:00 UTC,2445135.333333,28.7317,-95.2428,0215,-0.73,-0.68,1.0000,227.0000
1982-06-14 20:30:00 UTC,2445135.354167,28.7317,-95.2428,0215,-0.68,-0.73,1.0000,223.0000
1982-06-14 21:00:00 UTC,2445135.375000,28.7317,-95.2428,0215,-0.83,-0.56,1.0000,236.0000
1982-06-14 21:30:00 UTC,2445135.395833,28.7317,-95.2428,0215,-0.00,0.00,0.0000,296.0000
1982-06-14 22:00:00 UTC,2445135.416667,28.7317,-95.2428,0215,-0.02,1.00,1.0000,359.0000
1982-06-14 22:30:00 UTC,2445135.437500,28.7317,-95.2428,0215,0.00,0.00,0.0000,34.0000
1982-06-14 23:00:00 UTC,2445135.458333,28.7317,-95.2428,0215,0.98,-0.21,1.0000,102.0000
1982-06-14 23:30:00 UTC,2445135.479167,28.7317,-95.2428,0215,0.94,-0.34,1.0000,110.0000
1982-06-15 00:00:00 UTC,2445135.500000,28.7317,-95.2428,0215,0.87,0.50,1.0000,60.0000
1982-06-15 00:30:00 UTC,2445135.520833,28.7317,-95.2428,0215,0.55,1.92,2.0000,16.0000
1982-06-15 01:00:00 UTC,2445135.541667,28.7317,-95.2428,0215,0.42,2.97,3.0000,8.0000
1982-06-15 01:30:00 UTC,2445135.562500,28.7317,-95.2428,0215,0.24,1.99,2.0000,7.0000
1982-06-15 02:00:00 UTC,2445135.583333,28.7317,-95.2428,0215,0.58,1.91,2.0000,17.0000
1982-06-15 02:30:00 UTC,2445135.604167,28.7317,-95.2428,0215,0.68,1.88,2.0000,20.0000
1982-06-15 03:00:00 UTC,2445135.625000,28.7317,-95.2428,0215,0.22,0.97,1.0000,13.0000
1982-06-15 03:30:00 UTC,2445135.645833,28.7317,-95.2428,0215,-0.02,1.00,1.0000,359.0000
1982-06-15 04:00:00 UTC,2445135.666667,28.7317,-95.2428,0215,0.47,0.88,1.0000,28.0000
1982-06-15 04:30:00 UTC,2445135.687500,28.7317,-95.2428,0215,0.99,-0.12,1.0000,97.0000
1982-06-15 05:00:00 UTC,2445135.708333,28.7317,-95.2428,0215,1.36,-1.46,2.0000,137.0000
1982-06-15 05:30:00 UTC,2445135.729167,28.7317,-95.2428,0215,0.93,-2.85,3.0000,162.0000
1982-06-15 06:00:00 UTC,2445135.750000,28.7317,-95.2428,0215,0.76,-3.93,4.0000,169.0000
1982-06-15 06:30:00 UTC,2445135.770833,28.7317,-95.2428,0215,0.14,-4.00,4.0000,178.0000
1982-06-15 07:00:00 UTC,2445135.791667,28.7317,-95.2428,0215,-1.10,-3.85,4.0000,196.0000
1982-06-15 07:30:00 UTC,2445135.812500,28.7317,-95.2428,0215,-1.50,-3.71,4.0000,202.0000
1982-06-15 08:00:00 UTC,2445135.833333,28.7317,-95.2428,0215,-0.56,-3.96,4.0000,188.0000
1982-06-15 08:30:00 UTC,2445135.854167,28.7317,-95.2428,0215,0.28,-3.99,4.0000,176.0000
1982-06-15 09:00:00 UTC,2445135.875000,28.7317,-95.2428,0215,0.56,-3.96,4.0000,172.0000
1982-06-15 09:30:00 UTC,2445135.895833,28.7317,-95.2428,0215,0.42,-3.98,4.0000,174.0000
1982-06-15 10:00:00 UTC,2445135.916667,28.7317,-95.2428,0215,-0.21,-3.99,4.0000,183.0000
1982-06-15 10:30:00 UTC,2445135.937500,28.7317,-95.2428,0215,-0.67,-2.92,3.0000,193.0000
1982-06-15 11:00:00 UTC,2445135.958333,28.7317,-95.2428,0215,-0.67,-2.92,3.0000,193.0000
1982-06-15 11:30:00 UTC,2445135.979167,28.7317,-95.2428,0215,-0.05,-3.00,3.0000,181.0000
1982-06-15 12:00:00 UTC,2445136.000000,28.7317,-95.2428,0215,0.63,-3.95,4.0000,171.0000
1982-06-15 12:30:00 UTC,2445136.020833,28.7317,-95.2428,0215,0.42,-3.98,4.0000,174.0000
1982-06-15 13:00:00 UTC,2445136.041667,28.7317,-95.2428,0215,-0.21,-2.99,3.0000,184.0000
1982-06-15 13:30:00 UTC,2445136.062500,28.7317,-95.2428,0215,-0.28,-1.98,2.0000,188.0000
1982-06-15 14:00:00 UTC,2445136.083333,28.7317,-95.2428,0215,-0.58,-1.91,2.0000,197.0000
1982-06-15 14:30:00 UTC,2445136.104167,28.7317,-95.2428,0215,-1.27,-2.72,3.0000,205.0000
1982-06-15 15:00:00 UTC,2445136.125000,28.7317,-95.2428,0215,-1.22,-2.74,3.0000,204.0000
1982-06-15 15:30:00 UTC,2445136.145833,28.7317,-95.2428,0215,-0.67,-2.92,3.0000,193.0000
1982-06-15 16:00:00 UTC,2445136.166667,28.7317,-95.2428,0215,0.35,-1.97,2.0000,170.0000
1982-06-15 16:30:00 UTC,2445136.187500,28.7317,-95.2428,0215,1.03,-1.71,2.0000,149.0000
1982-06-15 17:00:00 UTC,2445136.208333,28.7317,-95.2428,0215,0.39,-0.92,1.0000,157.0000
1982-06-15 17:30:00 UTC,2445136.229167,28.7317,-95.2428,0215,-0.22,-0.97,1.0000,193.0000
1982-06-15 18:00:00 UTC,2445136.250000,28.7317,-95.2428,0215,-0.88,-1.80,2.0000,206.0000
1982-06-15 18:30:00 UTC,2445136.270833,28.7317,-95.2428,0215,-0.81,-1.83,2.0000,204.0000
1982-06-15 19:00:00 UTC,2445136.291667,28.7317,-95.2428,0215,-0.58,-1.91,2.0000,197.0000
1982-06-15 19:30:00 UTC,2445136.312500,28.7317,-95.2428,0215,-0.35,-1.97,2.0000,190.0000
1982-06-15 20:00:00 UTC,2445136.333333,28.7317,-95.2428,0215,-0.14,-2.00,2.0000,184.0000
1982-06-15 20:30:00 UTC,2445136.354167,28.7317,-95.2428,0215,0.28,-1.98,2.0000,172.0000
1982-06-15 21:00:00 UTC,2445136.375000,28.7317,-95.2428,0215,0.79,-0.62,1.0000,128.0000
1982-06-15 21:30:00 UTC,2445136.395833,28.7317,-95.2428,0215,1.98,-0.28,2.0000,98.0000
1982-06-15 22:00:00 UTC,2445136.416667,28.7317,-95.2428,0215,1.96,-0.38,2.0000,101.0000
1982-06-15 22:30:00 UTC,2445136.437500,28.7317,-95.2428,0215,1.96,-0.38,2.0000,101.0000
1982-06-15 23:00:00 UTC,2445136.458333,28.7317,-95.2428,0215,1.98,-0.28,2.0000,98.0000
1982-06-15 23:30:00 UTC,2445136.479167,28.7317,-95.2428,0215,2.00,0.00,2.0000,90.0000
1982-06-16 00:00:00 UTC,2445136.500000,28.7317,-95.2428,0215,2.88,0.83,3.0000,74.0000
1982-06-16 00:30:00 UTC,2445136.520833,28.7317,-95.2428,0215,2.85,0.93,3.0000,72.0000
1982-06-16 01:00:00 UTC,2445136.541667,28.7317,-95.2428,0215,2.93,0.62,3.0000,78.0000
1982-06-16 01:30:00 UTC,2445136.562500,28.7317,-95.2428,0215,2.98,0.31,3.0000,84.0000
1982-06-16 02:00:00 UTC,2445136.583333,28.7317,-95.2428,0215,2.98,0.31,3.0000,84.0000
1982-06-16 02:30:00 UTC,2445136.604167,28.7317,-95.2428,0215,3.85,1.10,4.0000,74.0000
1982-06-16 03:00:00 UTC,2445136.625000,28.7317,-95.2428,0215,3.86,1.04,4.0000,75.0000
1982-06-16 03:30:00 UTC,2445136.645833,28.7317,-95.2428,0215,3.97,-0.49,4.0000,97.0000
1982-06-16 04:00:00 UTC,2445136.666667,28.7317,-95.2428,0215,2.40,-1.81,3.0000,127.0000
1982-06-16 04:30:00 UTC,2445136.687500,28.7317,-95.2428,0215,1.68,-2.49,3.0000,146.0000
1982-06-16 05:00:00 UTC,2445136.708333,28.7317,-95.2428,0215,0.16,-0.99,1.0000,171.0000
1982-06-16 05:30:00 UTC,2445136.729167,28.7317,-95.2428,0215,-1.29,-1.53,2.0000,220.0000
1982-06-16 06:00:00 UTC,2445136.750000,28.7317,-95.2428,0215,-1.81,-2.40,3.0000,217.0000
1982-06-16 06:30:00 UTC,2445136.770833,28.7317,-95.2428,0215,-1.82,-3.56,4.0000,207.0000
1982-06-16 07:00:00 UTC,2445136.791667,28.7317,-95.2428,0215,-2.19,-4.49,5.0000,206.0000
1982-06-16 07:30:00 UTC,2445136.812500,28.7317,-95.2428,0215,-2.25,-5.56,6.0000,202.0000
1982-06-16 08:00:00 UTC,2445136.833333,28.7317,-95.2428,0215,-1.55,-5.80,6.0000,195.0000
1982-06-16 08:30:00 UTC,2445136.854167,28.7317,-95.2428,0215,-1.95,-5.67,6.0000,199.0000
1982-06-16 09:00:00 UTC,2445136.875000,28.7317,-95.2428,0215,-2.58,-4.29,5.0000,211.0000
1982-06-16 09:30:00 UTC,2445136.895833,28.7317,-95.2428,0215,-2.24,-3.32,4.0000,214.0000
1982-06-16 10:00:00 UTC,2445136.916667,28.7317,-95.2428,0215,-1.37,-3.76,4.0000,200.0000
1982-06-16 10:30:00 UTC,2445136.937500,28.7317,-95.2428,0215,-0.35,-3.98,4.0000,185.0000
1982-06-16 11:00:00 UTC,2445136.958333,28.7317,-95.2428,0215,-0.21,-2.99,3.0000,184.0000
1982-06-16 11:30:00 UTC,2445136.979167,28.7317,-95.2428,0215,-0.75,-1.85,2.0000,202.0000
1982-06-16 12:00:00 UTC,2445137.000000,28.7317,-95.2428,0215,-0.97,-0.22,1.0000,257.0000
1982-06-16 12:30:00 UTC,2445137.020833,28.7317,-95.2428,0215,-1.88,0.68,2.0000,290.0000
1982-06-16 13:00:00 UTC,2445137.041667,28.7317,-95.2428,0215,-1.51,1.31,2.0000,311.0000
1982-06-16 13:30:00 UTC,2445137.062500,28.7317,-95.2428,0215,-1.97,2.26,3.0000,319.0000
1982-06-16 14:00:00 UTC,2445137.083333,28.7317,-95.2428,0215,-2.16,2.08,3.0000,314.0000
1982-06-16 14:30:00 UTC,2445137.104167,28.7317,-95.2428,0215,-1.89,2.33,3.0000,321.0000
1982-06-16 15:00:00 UTC,2445137.125000,28.7317,-95.2428,0215,-1.08,2.80,3.0000,339.0000
1982-06-16 15:30:00 UTC,2445137.145833,28.7317,-95.2428,0215,-1.63,3.65,4.0000,336.0000
1982-06-16 16:00:00 UTC,2445137.166667,28.7317,-95.2428,0215,-2.57,3.06,4.0000,320.0000
1982-06-16 16:30:00 UTC,2445137.187500,28.7317,-95.2428,0215,-2.40,1.81,3.0000,307.0000
1982-06-16 17:00:00 UTC,2445137.208333,28.7317,-95.2428,0215,-2.70,1.32,3.0000,296.0000
1982-06-16 17:30:00 UTC,2445137.229167,28.7317,-95.2428,0215,-2.82,1.03,3.0000,290.0000
1982-06-16 18:00:00 UTC,2445137.250000,28.7317,-95.2428,0215,-3.00,0.16,3.0000,273.0000
1982-06-16 18:30:00 UTC,2445137.270833,28.7317,-95.2428,0215,-2.76,-1.17,3.0000,247.0000
1982-06-16 19:00:00 UTC,2445137.291667,28.7317,-95.2428,0215,-2.76,-1.17,3.0000,247.0000
1982-06-16 19:30:00 UTC,2445137.312500,28.7317,-95.2428,0215,-2.90,-0.78,3.0000,255.0000
1982-06-16 20:00:00 UTC,2445137.333333,28.7317,-95.2428,0215,-3.76,-1.37,4.0000,250.0000
1982-06-16 20:30:00 UTC,2445137.354167,28.7317,-95.2428,0215,-4.67,-1.79,5.0000,249.0000
1982-06-16 21:00:00 UTC,2445137.375000,28.7317,-95.2428,0215,-5.39,-2.63,6.0000,244.0000
1982-06-16 21:30:00 UTC,2445137.395833,28.7317,-95.2428,0215,-4.91,-3.44,6.0000,235.0000
1982-06-16 22:00:00 UTC,2445137.416667,28.7317,-95.2428,0215,-3.94,-3.08,5.0000,232.0000
1982-06-16 22:30:00 UTC,2445137.437500,28.7317,-95.2428,0215,-2.83,-2.83,4.0000,225.0000
1982-06-16 23:00:00 UTC,2445137.458333,28.7317,-95.2428,0215,-1.06,-1.70,2.0000,212.0000
1982-06-16 23:30:00 UTC,2445137.479167,28.7317,-95.2428,0215,-0.05,-1.00,1.0000,183.0000
1982-06-17 00:00:00 UTC,2445137.500000,28.7317,-95.2428,0215,0.93,-0.36,1.0000,111.0000
1982-06-17 00:30:00 UTC,2445137.520833,28.7317,-95.2428,0215,2.76,1.17,3.0000,67.0000
1982-06-17 01:00:00 UTC,2445137.541667,28.7317,-95.2428,0215,2.52,1.63,3.0000,57.0000
1982-06-17 01:30:00 UTC,2445137.562500,28.7317,-95.2428,0215,1.85,0.75,2.0000,68.0000
1982-06-17 02:00:00 UTC,2445137.583333,28.7317,-95.2428,0215,0.90,0.44,1.0000,64.0000
1982-06-17 02:30:00 UTC,2445137.604167,28.7317,-95.2428,0215,1.53,1.29,2.0000,50.0000
1982-06-17 03:00:00 UTC,2445137.625000,28.7317,-95.2428,0215,1.58,1.23,2.0000,52.0000
1982-06-17 03:30:00 UTC,2445137.645833,28.7317,-95.2428,0215,0.97,0.24,1.0000,76.0000
1982-06-17 04:00:00 UTC,2445137.666667,28.7317,-95.2428,0215,0.66,-0.75,1.0000,139.0000
1982-06-17 04:30:00 UTC,2445137.687500,28.7317,-95.2428,0215,-0.53,-0.85,1.0000,212.0000
1982-06-17 05:00:00 UTC,2445137.708333,28.7317,-95.2428,0215,-1.90,-0.62,2.0000,252.0000
1982-06-17 05:30:00 UTC,2445137.729167,28.7317,-95.2428,0215,-3.78,-1.30,4.0000,251.0000
1982-06-17 06:00:00 UTC,2445137.750000,28.7317,-95.2428,0215,-4.46,-2.27,5.0000,243.0000
1982-06-17 06:30:00 UTC,2445137.770833,28.7317,-95.2428,0215,-5.09,-3.18,6.0000,238.0000
1982-06-17 07:00:00 UTC,2445137.791667,28.7317,-95.2428,0215,-5.30,-2.82,6.0000,242.0000
1982-06-17 07:30:00 UTC,2445137.812500,28.7317,-95.2428,0215,-4.57,-2.03,5.0000,246.0000
1982-06-17 08:00:00 UTC,2445137.833333,28.7317,-95.2428,0215,-2.30,-1.93,3.0000,230.0000
1982-06-17 08:30:00 UTC,2445137.854167,28.7317,-95.2428,0215,-2.12,-2.12,3.0000,225.0000
1982-06-17 09:00:00 UTC,2445137.875000,28.7317,-95.2428,0215,-3.94,-3.08,5.0000,232.0000
1982-06-17 09:30:00 UTC,2445137.895833,28.7317,-95.2428,0215,-3.35,-3.72,5.0000,222.0000
1982-06-17 10:00:00 UTC,2445137.916667,28.7317,-95.2428,0215,-2.87,-4.10,5.0000,215.0000
1982-06-17 10:30:00 UTC,2445137.937500,28.7317,-95.2428,0215,-2.24,-3.32,4.0000,214.0000
1982-06-17 11:00:00 UTC,2445137.958333,28.7317,-95.2428,0215,-1.08,-2.80,3.0000,201.0000
1982-06-17 11:30:00 UTC,2445137.979167,28.7317,-95.2428,0215,-0.16,-3.00,3.0000,183.0000
1982-06-17 12:00:00 UTC,2445138.000000,28.7317,-95.2428,0215,-0.61,-4.96,5.0000,187.0000
1982-06-17 12:30:00 UTC,2445138.020833,28.7317,-95.2428,0215,-1.29,-4.83,5.0000,195.0000
1982-06-17 13:00:00 UTC,2445138.041667,28.7317,-95.2428,0215,-1.43,-3.73,4.0000,201.0000
1982-06-17 13:30:00 UTC,2445138.062500,28.7317,-95.2428,0215,-1.69,-3.63,4.0000,205.0000
1982-06-17 14:00:00 UTC,2445138.083333,28.7317,-95.2428,0215,-1.82,-3.56,4.0000,207.0000
1982-06-17 14:30:00 UTC,2445138.104167,28.7317,-95.2428,0215,-1.95,-4.60,5.0000,203.0000
1982-06-17 15:00:00 UTC,2445138.125000,28.7317,-95.2428,0215,-1.21,-4.85,5.0000,194.0000
1982-06-17 15:30:00 UTC,2445138.145833,28.7317,-95.2428,0215,-0.44,-4.98,5.0000,185.0000
1982-06-17 16:00:00 UTC,2445138.166667,28.7317,-95.2428,0215,-0.07,-4.00,4.0000,181.0000
1982-06-17 16:30:00 UTC,2445138.187500,28.7317,-95.2428,0215,0.00,-4.00,4.0000,180.0000
1982-06-17 17:00:00 UTC,2445138.208333,28.7317,-95.2428,0215,-0.07,-4.00,4.0000,181.0000
1982-06-17 17:30:00 UTC,2445138.229167,28.7317,-95.2428,0215,-0.35,-3.98,4.0000,185.0000
1982-06-17 18:00:00 UTC,2445138.250000,28.7317,-95.2428,0215,-0.78,-4.94,5.0000,189.0000
1982-06-17 18:30:00 UTC,2445138.270833,28.7317,-95.2428,0215,-0.94,-5.93,6.0000,189.0000
1982-06-17 19:00:00 UTC,2445138.291667,28.7317,-95.2428,0215,-0.85,-6.95,7.0000,187.0000
1982-06-17 19:30:00 UTC,2445138.312500,28.7317,-95.2428,0215,-0.42,-7.99,8.0000,183.0000
1982-06-17 20:00:00 UTC,2445138.333333,28.7317,-95.2428,0215,0.28,-8.00,8.0000,178.0000
1982-06-17 20:30:00 UTC,2445138.354167,28.7317,-95.2428,0215,0.42,-7.99,8.0000,177.0000
1982-06-17 21:00:00 UTC,2445138.375000,28.7317,-95.2428,0215,0.00,-8.00,8.0000,180.0000
1982-06-17 21:30:00 UTC,2445138.395833,28.7317,-95.2428,0215,-0.14,-8.00,8.0000,181.0000
1982-06-17 22:00:00 UTC,2445138.416667,28.7317,-95.2428,0215,0.16,-9.00,9.0000,179.0000
1982-06-17 22:30:00 UTC,2445138.437500,28.7317,-95.2428,0215,0.00,-10.00,10.0000,180.0000
1982-06-17 23:00:00 UTC,2445138.458333,28.7317,-95.2428,0215,-0.17,-10.00,10.0000,181.0000
1982-06-17 23:30:00 UTC,2445138.479167,28.7317,-95.2428,0215,0.16,-9.00,9.0000,179.0000
1982-06-18 00:00:00 UTC,2445138.500000,28.7317,-95.2428,0215,0.84,-7.96,8.0000,174.0000
1982-06-18 00:30:00 UTC,2445138.520833,28.7317,-95.2428,0215,0.78,-8.97,9.0000,175.0000
1982-06-18 01:00:00 UTC,2445138.541667,28.7317,-95.2428,0215,0.00,-9.00,9.0000,180.0000
1982-06-18 01:30:00 UTC,2445138.562500,28.7317,-95.2428,0215,0.14,-8.00,8.0000,179.0000
1982-06-18 02:00:00 UTC,2445138.583333,28.7317,-95.2428,0215,0.84,-7.96,8.0000,174.0000
1982-06-18 02:30:00 UTC,2445138.604167,28.7317,-95.2428,0215,0.63,-8.98,9.0000,176.0000
1982-06-18 03:00:00 UTC,2445138.625000,28.7317,-95.2428,0215,-0.31,-8.99,9.0000,182.0000
1982-06-18 03:30:00 UTC,2445138.645833,28.7317,-95.2428,0215,0.00,-8.00,8.0000,180.0000
1982-06-18 04:00:00 UTC,2445138.666667,28.7317,-95.2428,0215,0.56,-7.98,8.0000,176.0000
1982-06-18 04:30:00 UTC,2445138.687500,28.7317,-95.2428,0215,0.00,-8.00,8.0000,180.0000
1982-06-18 05:00:00 UTC,2445138.708333,28.7317,-95.2428,0215,-0.42,-7.99,8.0000,183.0000
1982-06-18 05:30:00 UTC,2445138.729167,28.7317,-95.2428,0215,-0.12,-7.00,7.0000,181.0000
1982-06-18 06:00:00 UTC,2445138.750000,28.7317,-95.2428,0215,-0.24,-7.00,7.0000,182.0000
1982-06-18 06:30:00 UTC,2445138.770833,28.7317,-95.2428,0215,-0.61,-6.97,7.0000,185.0000
1982-06-18 07:00:00 UTC,2445138.791667,28.7317,-95.2428,0215,-1.46,-6.85,7.0000,192.0000
1982-06-18 07:30:00 UTC,2445138.812500,28.7317,-95.2428,0215,-1.93,-6.73,7.0000,196.0000
1982-06-18 08:00:00 UTC,2445138.833333,28.7317,-95.2428,0215,-1.22,-6.89,7.0000,190.0000
1982-06-18 08:30:00 UTC,2445138.854167,28.7317,-95.2428,0215,-0.28,-8.00,8.0000,182.0000
1982-06-18 09:00:00 UTC,2445138.875000,28.7317,-95.2428,0215,0.28,-8.00,8.0000,178.0000
1982-06-18 09:30:00 UTC,2445138.895833,28.7317,-95.2428,0215,0.56,-7.98,8.0000,176.0000
1982-06-18 10:00:00 UTC,2445138.916667,28.7317,-95.2428,0215,0.97,-7.94,8.0000,173.0000
1982-06-18 10:30:00 UTC,2445138.937500,28.7317,-95.2428,0215,1.11,-7.92,8.0000,172.0000
1982-06-18 11:00:00 UTC,2445138.958333,28.7317,-95.2428,0215,1.39,-7.88,8.0000,170.0000
1982-06-18 11:30:00 UTC,2445138.979167,28.7317,-95.2428,0215,2.34,-7.65,8.0000,163.0000
1982-06-18 12:00:00 UTC,2445139.000000,28.7317,-95.2428,0215,3.13,-7.36,8.0000,157.0000
1982-06-18 12:30:00 UTC,2445139.020833,28.7317,-95.2428,0215,2.87,-7.47,8.0000,159.0000
1982-06-18 13:00:00 UTC,2445139.041667,28.7317,-95.2428,0215,2.34,-7.65,8.0000,163.0000
1982-06-18 13:30:00 UTC,2445139.062500,28.7317,-95.2428,0215,2.05,-6.69,7.0000,163.0000
1982-06-18 14:00:00 UTC,2445139.083333,28.7317,-95.2428,0215,2.05,-6.69,7.0000,163.0000
1982-06-18 14:30:00 UTC,2445139.104167,28.7317,-95.2428,0215,1.34,-6.87,7.0000,169.0000
1982-06-18 15:00:00 UTC,2445139.125000,28.7317,-95.2428,0215,1.10,-6.91,7.0000,171.0000
1982-06-18 15:30:00 UTC,2445139.145833,28.7317,-95.2428,0215,1.45,-5.82,6.0000,166.0000
1982-06-18 16:00:00 UTC,2445139.166667,28.7317,-95.2428,0215,1.35,-5.85,6.0000,167.0000
1982-06-18 16:30:00 UTC,2445139.187500,28.7317,-95.2428,0215,0.73,-5.96,6.0000,173.0000
1982-06-18 17:00:00 UTC,2445139.208333,28.7317,-95.2428,0215,1.35,-5.85,6.0000,167.0000
1982-06-18 17:30:00 UTC,2445139.229167,28.7317,-95.2428,0215,2.74,-6.44,7.0000,157.0000
1982-06-18 18:00:00 UTC,2445139.250000,28.7317,-95.2428,0215,2.62,-6.49,7.0000,158.0000
1982-06-18 18:30:00 UTC,2445139.270833,28.7317,-95.2428,0215,2.07,-7.73,8.0000,165.0000
1982-06-18 19:00:00 UTC,2445139.291667,28.7317,-95.2428,0215,1.39,-7.88,8.0000,170.0000
1982-06-18 19:30:00 UTC,2445139.312500,28.7317,-95.2428,0215,0.97,-7.94,8.0000,173.0000
1982-06-18 20:00:00 UTC,2445139.333333,28.7317,-95.2428,0215,0.00,-8.00,8.0000,180.0000
1982-06-18 20:30:00 UTC,2445139.354167,28.7317,-95.2428,0215,-1.39,-7.88,8.0000,190.0000
1982-06-18 21:00:00 UTC,2445139.375000,28.7317,-95.2428,0215,-1.39,-7.88,8.0000,190.0000
1982-06-18 21:30:00 UTC,2445139.395833,28.7317,-95.2428,0215,-0.49,-6.98,7.0000,184.0000
1982-06-18 22:00:00 UTC,2445139.416667,28.7317,-95.2428,0215,-0.12,-7.00,7.0000,181.0000
1982-06-18 22:30:00 UTC,2445139.437500,28.7317,-95.2428,0215,0.24,-7.00,7.0000,178.0000
1982-06-18 23:00:00 UTC,2445139.458333,28.7317,-95.2428,0215,0.37,-6.99,7.0000,177.0000
1982-06-18 23:30:00 UTC,2445139.479167,28.7317,-95.2428,0215,0.37,-6.99,7.0000,177.0000
1982-06-19 00:00:00 UTC,2445139.500000,28.7317,-95.2428,0215,0.85,-6.95,7.0000,173.0000
1982-06-19 00:30:00 UTC,2445139.520833,28.7317,-95.2428,0215,1.14,-5.89,6.0000,169.0000
1982-06-19 01:00:00 UTC,2445139.541667,28.7317,-95.2428,0215,1.35,-5.85,6.0000,167.0000
1982-06-19 01:30:00 UTC,2445139.562500,28.7317,-95.2428,0215,1.21,-4.85,5.0000,166.0000
1982-06-19 02:00:00 UTC,2445139.583333,28.7317,-95.2428,0215,2.05,-5.64,6.0000,160.0000
1982-06-19 02:30:00 UTC,2445139.604167,28.7317,-95.2428,0215,2.05,-5.64,6.0000,160.0000
1982-06-19 03:00:00 UTC,2445139.625000,28.7317,-95.2428,0215,1.57,-6.82,7.0000,167.0000
1982-06-19 03:30:00 UTC,2445139.645833,28.7317,-95.2428,0215,0.63,-5.97,6.0000,174.0000
1982-06-19 04:00:00 UTC,2445139.666667,28.7317,-95.2428,0215,0.10,-6.00,6.0000,179.0000
1982-06-19 04:30:00 UTC,2445139.687500,28.7317,-95.2428,0215,0.21,-6.00,6.0000,178.0000
1982-06-19 05:00:00 UTC,2445139.708333,28.7317,-95.2428,0215,0.84,-5.94,6.0000,172.0000
1982-06-19 05:30:00 UTC,2445139.729167,28.7317,-95.2428,0215,0.84,-5.94,6.0000,172.0000
1982-06-19 06:00:00 UTC,2445139.750000,28.7317,-95.2428,0215,0.52,-5.98,6.0000,175.0000
1982-06-19 06:30:00 UTC,2445139.770833,28.7317,-95.2428,0215,0.42,-5.99,6.0000,176.0000
1982-06-19 07:00:00 UTC,2445139.791667,28.7317,-95.2428,0215,0.37,-6.99,7.0000,177.0000
1982-06-19 07:30:00 UTC,2445139.812500,28.7317,-95.2428,0215,0.12,-7.00,7.0000,179.0000
1982-06-19 08:00:00 UTC,2445139.833333,28.7317,-95.2428,0215,0.24,-7.00,7.0000,178.0000
1982-06-19 08:30:00 UTC,2445139.854167,28.7317,-95.2428,0215,-0.24,-7.00,7.0000,182.0000
1982-06-19 09:00:00 UTC,2445139.875000,28.7317,-95.2428,0215,-0.61,-6.97,7.0000,185.0000
1982-06-19 09:30:00 UTC,2445139.895833,28.7317,-95.2428,0215,-0.70,-7.97,8.0000,185.0000
1982-06-19 10:00:00 UTC,2445139.916667,28.7317,-95.2428,0215,-0.70,-7.97,8.0000,185.0000
1982-06-19 10:30:00 UTC,2445139.937500,28.7317,-95.2428,0215,-0.12,-7.00,7.0000,181.0000
1982-06-19 11:00:00 UTC,2445139.958333,28.7317,-95.2428,0215,0.73,-6.96,7.0000,174.0000
1982-06-19 11:30:00 UTC,2445139.979167,28.7317,-95.2428,0215,0.85,-6.95,7.0000,173.0000
1982-06-19 12:00:00 UTC,2445140.000000,28.7317,-95.2428,0215,0.85,-6.95,7.0000,173.0000
1982-06-19 12:30:00 UTC,2445140.020833,28.7317,-95.2428,0215,1.22,-6.89,7.0000,170.0000
1982-06-19 13:00:00 UTC,2445140.041667,28.7317,-95.2428,0215,1.46,-6.85,7.0000,168.0000
1982-06-19 13:30:00 UTC,2445140.062500,28.7317,-95.2428,0215,1.34,-6.87,7.0000,169.0000
1982-06-19 14:00:00 UTC,2445140.083333,28.7317,-95.2428,0215,1.14,-5.89,6.0000,169.0000
1982-06-19 14:30:00 UTC,2445140.104167,28.7317,-95.2428,0215,1.65,-5.77,6.0000,164.0000
1982-06-19 15:00:00 UTC,2445140.125000,28.7317,-95.2428,0215,1.85,-5.71,6.0000,162.0000
1982-06-19 15:30:00 UTC,2445140.145833,28.7317,-95.2428,0215,1.85,-5.71,6.0000,162.0000
1982-06-19 16:00:00 UTC,2445140.166667,28.7317,-95.2428,0215,1.35,-5.85,6.0000,167.0000
1982-06-19 16:30:00 UTC,2445140.187500,28.7317,-95.2428,0215,0.73,-5.96,6.0000,173.0000
1982-06-19 17:00:00 UTC,2445140.208333,28.7317,-95.2428,0215,0.73,-5.96,6.0000,173.0000
1982-06-19 17:30:00 UTC,2445140.229167,28.7317,-95.2428,0215,0.94,-5.93,6.0000,171.0000
1982-06-19 18:00:00 UTC,2445140.250000,28.7317,-95.2428,0215,1.22,-6.89,7.0000,170.0000
1982-06-19 18:30:00 UTC,2445140.270833,28.7317,-95.2428,0215,1.10,-6.91,7.0000,171.0000
1982-06-19 19:00:00 UTC,2445140.291667,28.7317,-95.2428,0215,0.85,-6.95,7.0000,173.0000
1982-06-19 19:30:00 UTC,2445140.312500,28.7317,-95.2428,0215,0.61,-6.97,7.0000,175.0000
1982-06-19 20:00:00 UTC,2445140.333333,28.7317,-95.2428,0215,0.31,-5.99,6.0000,177.0000
1982-06-19 20:30:00 UTC,2445140.354167,28.7317,-95.2428,0215,-0.10,-6.00,6.0000,181.0000
1982-06-19 21:00:00 UTC,2445140.375000,28.7317,-95.2428,0215,-0.21,-6.00,6.0000,182.0000
1982-06-19 21:30:00 UTC,2445140.395833,28.7317,-95.2428,0215,-0.12,-7.00,7.0000,181.0000
1982-06-19 22:00:00 UTC,2445140.416667,28.7317,-95.2428,0215,-0.42,-7.99,8.0000,183.0000
1982-06-19 22:30:00 UTC,2445140.437500,28.7317,-95.2428,0215,-0.78,-8.97,9.0000,185.0000
1982-06-19 23:00:00 UTC,2445140.458333,28.7317,-95.2428,0215,-0.14,-8.00,8.0000,181.0000
1982-06-19 23:30:00 UTC,2445140.479167,28.7317,-95.2428,0215,0.47,-8.99,9.0000,177.0000
1982-06-20 00:00:00 UTC,2445140.500000,28.7317,-95.2428,0215,0.70,-7.97,8.0000,175.0000
1982-06-20 00:30:00 UTC,2445140.520833,28.7317,-95.2428,0215,1.57,-6.82,7.0000,167.0000
1982-06-20 01:00:00 UTC,2445140.541667,28.7317,-95.2428,0215,2.63,-5.39,6.0000,154.0000
1982-06-20 01:30:00 UTC,2445140.562500,28.7317,-95.2428,0215,3.00,-5.20,6.0000,150.0000
1982-06-20 02:00:00 UTC,2445140.583333,28.7317,-95.2428,0215,2.11,-4.53,5.0000,155.0000
1982-06-20 02:30:00 UTC,2445140.604167,28.7317,-95.2428,0215,1.46,-4.78,5.0000,163.0000
1982-06-20 03:00:00 UTC,2445140.625000,28.7317,-95.2428,0215,1.85,-5.71,6.0000,162.0000
1982-06-20 03:30:00 UTC,2445140.645833,28.7317,-95.2428,0215,2.54,-5.44,6.0000,155.0000
1982-06-20 04:00:00 UTC,2445140.666667,28.7317,-95.2428,0215,2.34,-5.52,6.0000,157.0000
1982-06-20 04:30:00 UTC,2445140.687500,28.7317,-95.2428,0215,1.75,-5.74,6.0000,163.0000
1982-06-20 05:00:00 UTC,2445140.708333,28.7317,-95.2428,0215,1.75,-5.74,6.0000,163.0000
1982-06-20 05:30:00 UTC,2445140.729167,28.7317,-95.2428,0215,1.75,-5.74,6.0000,163.0000
1982-06-20 06:00:00 UTC,2445140.750000,28.7317,-95.2428,0215,1.55,-5.80,6.0000,165.0000
1982-06-20 06:30:00 UTC,2445140.770833,28.7317,-95.2428,0215,1.81,-6.76,7.0000,165.0000
1982-06-20 07:00:00 UTC,2445140.791667,28.7317,-95.2428,0215,1.46,-6.85,7.0000,168.0000
1982-06-20 07:30:00 UTC,2445140.812500,28.7317,-95.2428,0215,0.84,-7.96,8.0000,174.0000
1982-06-20 08:00:00 UTC,2445140.833333,28.7317,-95.2428,0215,0.28,-8.00,8.0000,178.0000
1982-06-20 08:30:00 UTC,2445140.854167,28.7317,-95.2428,0215,-0.14,-8.00,8.0000,181.0000